Volver al catálogo

DMSP 5D-2 F11 DEB

ActivoSSO
NORAD 29071·DEBRIS·🇺🇸 United States

Lanzado Nov 28, 1991 desde Vandenberg Space Force Base

Loading…

Próximos Pases (próximas 24 horas)

TLE

ActualizadoSource: Space-Track

Época: Sep 12, 2026, 10:54 UTC

1 29071U 91082BS  26255.45446228  .00002944  00000-0  95482-3 0  9994
2 29071  98.9418 332.1134 0068926 290.2881  69.0906 14.38392137144200

Sigue DMSP 5D-2 F11 DEB en tiempo real con AllMySat

Download on the App Store